N905FM KJRB-KJPX

Flight info

Callsign N905FM
Flight time N/A
Altitude 1500
Route DCT
Aircraft EC25/L-SDGIRY/C

Departure

Time 2026-04-12 20:30
Airport Downtown Manhattan Heliport (KJRB)

Arrival

Time N/A
Airport Town of East Hampton Airport (KJPX)
Time Latitude Longitude Altitude Speed Heading
2026-04-12 20:27 40.70131 -74.00810 12 ft 0 kts 331°
2026-04-12 20:28 40.70132 -74.00811 14 ft 1 kts 312°
2026-04-12 20:28 40.70167 -74.00835 145 ft 11 kts 87°
2026-04-12 20:28 40.70142 -74.00778 211 ft 35 kts 172°
2026-04-12 20:28 40.69811 -74.01144 215 ft 78 kts 228°
2026-04-12 20:29 40.69591 -74.01882 218 ft 93 kts 237°
2026-04-12 20:29 40.69280 -74.02565 331 ft 84 kts 205°
2026-04-12 20:29 40.68756 -74.02994 341 ft 98 kts 198°
2026-04-12 20:29 40.68100 -74.03414 286 ft 105 kts 193°
2026-04-12 20:30 40.67408 -74.03774 275 ft 109 kts 191°
2026-04-12 20:30 40.66784 -74.04111 578 ft 92 kts 192°
2026-04-12 20:30 40.66179 -74.04427 805 ft 95 kts 184°
2026-04-12 20:30 40.65553 -74.04677 1083 ft 87 kts 179°
2026-04-12 20:31 40.64945 -74.04941 1238 ft 94 kts 186°
2026-04-12 20:31 40.64281 -74.05182 1036 ft 99 kts 181°
2026-04-12 20:31 40.63610 -74.05307 941 ft 96 kts 173°
2026-04-12 20:31 40.62938 -74.05319 838 ft 97 kts 168°
2026-04-12 20:32 40.62261 -74.05236 697 ft 99 kts 162°
2026-04-12 20:32 40.61572 -74.05040 575 ft 104 kts 159°
2026-04-12 20:32 40.60876 -74.04720 447 ft 105 kts 151°
2026-04-12 20:32 40.60252 -74.04344 493 ft 92 kts 147°
2026-04-12 20:33 40.59707 -74.03991 611 ft 84 kts 145°
2026-04-12 20:33 40.59216 -74.03614 649 ft 80 kts 140°
2026-04-12 20:33 40.58771 -74.03179 651 ft 81 kts 135°